Location: Palo Alto
(37.4420°N, 122.1420°W)
Time: 18:24:02
(UTC-07:00)

ARGOS - Visible Passes

Search period start: 01 May 2016 00:00
Search period end: 11 May 2016 00:00
Orbit: 821 x 834 km, 98.7° (Epoch: 30 April)

Date Brightness Start Highest point End Pass type
(mag) Time Alt. Az. Time Alt. Az. Time Alt. Az.
01 May 3.8 21:56:50 35° E 21:57:46 38° ENE 22:02:42 10° N visible
01 May 4.8 23:38:21 25° W 23:38:21 25° W 23:42:26 10° NW visible
02 May 4.3 21:37:59 23° E 21:39:23 26° ENE 21:43:46 10° NNE visible
02 May 4.2 23:19:30 37° W 23:19:30 37° W 23:24:24 10° NNW visible
03 May 4.8 21:19:08 15° E 21:21:04 18° ENE 21:24:35 10° NNE visible
03 May 3.5 23:00:40 56° WSW 23:00:48 56° W 23:06:07 10° NNW visible
04 May 5.1 21:00:46 10° E 21:02:47 12° ENE 21:04:49 10° NE visible
04 May 3.0 22:41:49 76° S 22:42:15 84° WSW 22:47:41 10° NNW visible
05 May 3.1 22:22:59 58° ESE 22:23:45 66° ENE 22:29:07 10° N visible
06 May 5.5 00:04:29 14° W 00:04:29 14° W 00:07:07 10° WNW visible
06 May 3.6 22:04:08 38° ESE 22:05:17 44° ENE 22:10:25 10° N visible
06 May 5.0 23:45:39 21° W 23:45:41 21° W 23:49:44 10° NW visible
07 May 4.2 21:45:18 26° E 21:46:54 30° ENE 21:51:33 10° N visible
07 May 4.4 23:26:48 31° WSW 23:27:01 32° W 23:31:49 10° NW visible
08 May 4.6 21:26:28 17° E 21:28:33 21° ENE 21:32:30 10° NNE visible
08 May 3.7 23:07:58 46° WSW 23:08:24 47° W 23:13:37 10° NNW visible
09 May 5.0 21:07:37 10° E 21:10:16 14° ENE 21:13:04 10° NNE visible
09 May 3.2 22:49:08 63° SSW 22:49:50 72° WSW 22:55:15 10° NNW visible
10 May 3.1 22:30:17 59° SE 22:31:19 78° ENE 22:36:44 10° N visible
